Overview Statistics Trail Chart Weather Telemetry Raw packets
 

This is the latest recevied weather packets stored in our database for station/object KB4MLW-13. If no packets are shown the sender has not sent any weather packets the latest 10 day(s).

<< 60 61 62 63 64 65 66 >>
Time Temp. Humidity Pressure Rain* Wind** Luminosity Snow
1788282208 33.33° C 63% 1002.7 hPa 0 mm - - -
1788282119 33.33° C 64% 1002.6 hPa 0 mm - - -
1788282029 33.33° C 67% 1002.7 hPa 0 mm - - -
1788281968 33.33° C 63% 1002.7 hPa 0 mm - - -
1788281879 32.78° C 64% 1002.7 hPa 0 mm - - -
1788281818 32.78° C 64% 1002.8 hPa 0 mm - - -
1788281758 32.78° C 65% 1002.7 hPa 0 mm - - -
1788281669 33.33° C 65% 1002.6 hPa 0 mm - - -
1788281608 33.89° C 64% 1002.9 hPa 0 mm - - -
1788281548 34.44° C 63% 1002.7 hPa 0 mm - - -
1788281488 34.44° C 62% 1002.7 hPa 0 mm - - -
1788281399 33.89° C 63% 1002.7 hPa 0 mm - - -
1788281338 33.89° C 66% 1002.9 hPa 0 mm - - -
1788281248 33.33° C 64% 1002.8 hPa 0 mm - - -
1788281188 33.33° C 67% 1002.8 hPa 0 mm - - -
1788281099 32.78° C 69% 1002.8 hPa 0 mm - - -
1788281039 32.78° C 68% 1002.8 hPa 0 mm - - -
1788280978 32.22° C 66% 1002.7 hPa 0 mm - - -
1788280918 32.78° C 65% 1002.8 hPa 0 mm - - -
1788280858 32.78° C 66% 1002.9 hPa 0 mm - - -
1788280798 32.78° C 68% 1002.9 hPa 0 mm - - -
1788280738 32.78° C 67% 1002.9 hPa 0 mm - - -
1788280678 33.33° C 66% 1003 hPa 0 mm - - -
1788280588 33.33° C 66% 1002.7 hPa 0 mm - - -
1788280499 33.33° C 64% 1003.1 hPa 0 mm - - -

* Rain latest hour (hover to see other rain measurements)
** Current wind speed in m/s (hover to see current wind gust speed)